SCP
0 0 -0 -0 -0 -0 -0 -0 0 0 0 -0 -0 -0 -0 -0 -0 -0 -0 -0 -0 0 0 0 0 0 0 0 0 0 0 0 0
-0 -0 -0 -0 -0 -0 0 0 0 0 0 0 -0 -0 0 0 0 0 0 0 0 0 0 0 0 0 0 0 0 0 0 0 0
-0 -0 -0 0 0 0 0 0 0 0 0 0 0 0 0 0 0 0 0 0 0 0 0 0 0 0 0 0 -0 0 0 0 0
0 0 0 0 0 0 0 0 -0 -0 0 0 0 0 0 0 0 0 0 0 0 0 0 0 0 0 0 0 0 0 0 0 0
-0 0 0 0 0 0 0 0 0 0 0 0 0 0 0 0 0 0 0 0 0 0 0 0 0 0 0 0 0 0 0 0 0
0 0 0 0 0 0 0 0 0 0 -0 0 0 0 0 0 0 0 0 0 0 0 0 0 0 0 0 0 0 0 0 0 0
0 0 0 0 0 0 0 0 0 0 0 0 0 0 1 1 1 1 1 0 0 0 -0 0 1 0 0 1 0 0 0 0 1
0 0 0 0 0 0 0 0 0 0 0 0 0 0 0 0 0 1 0 0 0 0 0 0 0 0 0 1 1 1 0 1 1
0 0 0 0 0 0 0 0 0 0 0 0 0 0 0 0 1 0 0 0 0 0 0 0 -0 -0 0 0 1 1 0 1 1
0 1 1 0 0 0 0 0 0 0 0 0 0 0 0 0 1 1 0 0 0 0 0 0 0 -0 0 0 0 0 0 0 1
0 0 0 0 0 0 0 0 0 0 0 0 0 0 0 0 0 0 0 0 0 0 0 0 0 0 0 0 1 1 0 0 1
0 0 0 0 0 0 0 0 0 0 0 0 0 0 0 0 0 0 0 0 0 0 0 0 0 0 0 0 0 0 0 0 1
0 0 0 0 0 0 0 0 0 0 0 0 0 0 0 0 0 0 0 0 0 0 0 0 -0 0 0 0 0 0 0 0 0
0 0 0 0 0 0 0 0 0 0 0 0 0 0 -0 0 0 0 0 0 0 0 0 0 0 0 -0 0 -0 -0 0 0 0
0 0 0 0 0 0 0 0 0 0 0 0 0 0 0 0 0 0 0 0 0 0 0 0 0 0 -0 -0 0 0 0 0 0
0 0 0 0 0 0 0 0 0 0 0 0 0 0 0 -0 0 0 0 0 0 0 0 0 0 0 0 0 0 0 0 0 0
0 0 0 0 0 0 0 0 0 0 0 0 0 0 0 0 -0 -0 0 0 0 0 0 0 0 0 0 0 0 0 0 0 0
0 0 0 0 0 0 0 0 0 0 0 0 0 0 0 0 0 0 0 0 0 0 0 0 0 0 0 0 0 0 0 0 0
0 0 0 0 0 0 0 0 0 0 0 0 0 0 0 0 0 0 0 0 -0 -0 0 0 0 0 0 0 0 1 0 0 0
0 0 0 0 0 0 0 0 0 0 0 0 0 0 0 0 0 0 0 0 0 -0 -0 0 0 0 0 0 0 0 0 0 0
Wind_Speed_500mb
11 24 45 76 86 87 86 98 89 86 85 76 76 76 72 74 74 70 65 59 50 46 41 37 37 36 41 44 42 39 45 48 47
6 13 11 19 48 72 76 79 91 86 83 78 72 67 70 71 75 73 68 60 53 44 39 36 34 32 34 42 47 46 47 48 50
8 18 19 8 21 41 64 62 66 76 78 75 66 65 62 66 68 69 65 61 55 51 43 40 39 35 29 38 50 52 50 49 50
19 23 24 18 13 32 47 44 43 54 61 61 67 55 61 62 64 65 66 59 56 52 44 40 43 41 31 30 38 48 52 51 48
16 24 23 18 11 13 27 37 46 48 53 55 37 40 48 56 63 67 66 63 59 50 48 49 45 45 42 40 43 45 54 55 53
9 16 8 9 3 13 24 33 33 28 31 43 48 39 45 52 58 65 67 67 66 68 63 58 57 60 59 50 51 49 48 52 58
9 11 13 11 12 17 26 35 44 30 26 29 31 35 42 41 48 58 63 64 66 67 65 67 73 70 71 70 68 60 56 52 53
16 14 12 16 21 25 32 36 33 36 42 34 43 45 40 51 46 49 69 67 67 63 56 51 51 59 71 75 71 70 64 56 55
19 12 9 9 14 21 26 31 34 28 25 31 28 36 51 53 65 58 53 63 74 80 69 44 63 81 63 69 77 74 69 63 60
16 13 12 11 10 14 20 22 23 18 12 16 26 37 40 45 49 49 53 61 56 72 64 70 88 85 77 71 64 71 75 69 66
25 20 13 8 6 10 15 18 16 14 26 15 9 8 11 15 20 31 44 56 60 62 73 70 61 90 83 68 60 58 72 73 71
14 10 5 8 11 15 15 14 12 18 25 25 18 16 25 22 14 16 26 32 41 55 66 75 91 101 103 72 71 63 61 68 71
11 1 7 13 16 18 17 18 18 21 24 29 32 33 31 25 25 27 31 36 38 52 41 33 24 17 33 48 55 70 61 67 74
12 9 10 14 17 18 21 22 21 24 28 33 38 41 39 30 22 30 32 35 35 40 37 51 36 38 44 55 64 77 78 75 77
13 12 11 10 12 13 17 25 30 31 31 32 35 41 44 41 37 38 36 33 34 36 45 65 77 79 79 70 63 67 66 68 63
14 14 11 10 11 17 23 30 37 42 44 45 43 45 53 56 49 38 33 40 34 39 40 48 54 58 54 52 40 36 42 48 45
23 20 16 14 17 25 34 42 45 46 51 56 59 55 54 57 62 62 48 39 41 43 48 45 42 44 50 46 41 42 35 39 46
27 21 16 18 24 33 40 44 48 51 55 55 56 54 51 50 54 59 61 58 46 41 39 51 52 47 39 46 52 48 42 41 47
19 17 17 18 23 31 40 48 48 43 46 49 48 49 49 48 48 46 51 58 60 56 54 49 49 56 66 61 55 46 49 49 52
18 17 15 21 28 34 34 34 37 37 37 37 38 45 57 62 51 47 44 46 48 52 47 44 47 51 56 62 80 71 60 60 63
Wind_Direction_500mb
196 235 247 242 240 231 230 227 226 229 236 237 243 247 252 249 245 244 246 248 251 257 252 258 258 253 246 238 236 222 213 221 225
323 359 320 257 239 232 230 232 230 229 236 240 243 248 251 253 248 245 247 250 250 254 252 257 266 263 244 237 237 231 221 220 225
3 28 19 341 263 238 228 235 236 234 238 243 248 249 250 254 254 248 249 253 251 252 251 255 261 258 253 247 238 232 231 225 224
38 38 31 22 294 243 239 240 240 239 238 244 249 253 252 255 254 251 251 255 253 250 248 249 253 263 266 251 245 241 238 234 227
55 51 36 31 343 240 225 229 236 238 244 243 248 258 260 263 261 254 255 256 256 250 248 245 247 255 256 257 253 251 248 243 236
85 78 75 55 281 201 200 211 220 225 251 245 252 261 264 259 255 254 255 260 263 264 262 258 254 254 257 256 252 251 252 245 240
158 141 148 178 205 218 220 223 223 258 303 297 270 260 251 254 258 255 258 264 265 266 269 276 275 267 264 263 259 254 249 241 242
190 180 175 202 223 233 240 248 255 277 286 276 273 255 256 255 255 263 252 254 261 257 255 260 272 277 276 268 261 255 252 249 242
191 196 228 221 251 267 269 273 280 291 283 286 285 271 264 260 264 267 263 260 257 252 248 266 288 289 269 271 266 255 246 244 241
140 99 81 61 28 346 320 311 308 310 307 278 261 263 267 267 267 259 264 257 257 262 266 265 283 271 269 255 252 258 245 242 237
121 98 84 74 14 16 11 15 8 351 329 320 304 334 332 316 309 290 273 262 266 267 257 265 263 251 243 241 241 247 247 244 241
140 117 43 20 7 360 10 9 5 354 347 348 339 343 342 332 333 305 278 268 275 267 258 264 256 262 256 241 255 253 248 248 245
142 167 324 325 330 337 339 336 330 326 337 331 329 328 331 307 308 296 290 285 271 274 266 230 203 224 201 213 252 241 244 256 247
181 218 276 300 314 320 321 317 321 325 330 327 331 330 333 329 303 288 291 284 276 257 250 209 210 231 221 228 241 242 256 252 248
199 226 234 261 291 311 325 329 331 332 327 322 315 314 320 322 318 303 284 285 284 283 262 245 251 261 264 259 250 248 247 243 237
219 220 233 244 268 295 313 320 320 317 317 315 309 301 301 308 311 314 297 277 285 284 281 274 273 272 264 256 246 233 220 224 224
216 221 222 244 278 299 306 310 314 317 319 315 310 306 302 295 295 296 293 287 283 279 274 275 279 281 269 259 252 244 233 230 232
200 204 230 269 294 305 313 315 313 313 312 313 311 312 312 305 293 289 291 289 284 280 273 265 266 267 264 258 251 246 252 256 239
208 234 257 279 296 304 309 310 315 321 320 320 321 322 323 317 310 301 292 293 291 287 282 278 272 268 260 256 248 248 249 247 242
239 246 270 288 299 310 317 322 325 325 328 325 324 328 331 330 319 303 305 302 302 295 287 292 284 281 280 270 262 256 246 242 237
Wind_Speed_850mb
11 24 45 76 86 87 86 98 89 86 85 76 76 76 72 74 74 70 65 59 50 46 41 37 37 36 41 44 42 39 45 48 47
6 13 11 19 48 72 76 79 91 86 83 78 72 67 70 71 75 73 68 60 53 44 39 36 34 32 34 42 47 46 47 48 50
8 18 19 8 21 41 64 62 66 76 78 75 66 65 62 66 68 69 65 61 55 51 43 40 39 35 29 38 50 52 50 49 50
19 23 24 18 13 32 47 44 43 54 61 61 67 55 61 62 64 65 66 59 56 52 44 40 43 41 31 30 38 48 52 51 48
16 24 23 18 11 13 27 37 46 48 53 55 37 40 48 56 63 67 66 63 59 50 48 49 45 45 42 40 43 45 54 55 53
9 16 8 9 3 13 24 33 33 28 31 43 48 39 45 52 58 65 67 67 66 68 63 58 57 60 59 50 51 49 48 52 58
9 11 13 11 12 17 26 35 44 30 26 29 31 35 42 41 48 58 63 64 66 67 65 67 73 70 71 70 68 60 56 52 53
16 14 12 16 21 25 32 36 33 36 42 34 43 45 40 51 46 49 69 67 67 63 56 51 51 59 71 75 71 70 64 56 55
19 12 9 9 14 21 26 31 34 28 25 31 28 36 51 53 65 58 53 63 74 80 69 44 63 81 63 69 77 74 69 63 60
16 13 12 11 10 14 20 22 23 18 12 16 26 37 40 45 49 49 53 61 56 72 64 70 88 85 77 71 64 71 75 69 66
25 20 13 8 6 10 15 18 16 14 26 15 9 8 11 15 20 31 44 56 60 62 73 70 61 90 83 68 60 58 72 73 71
14 10 5 8 11 15 15 14 12 18 25 25 18 16 25 22 14 16 26 32 41 55 66 75 91 101 103 72 71 63 61 68 71
11 1 7 13 16 18 17 18 18 21 24 29 32 33 31 25 25 27 31 36 38 52 41 33 24 17 33 48 55 70 61 67 74
12 9 10 14 17 18 21 22 21 24 28 33 38 41 39 30 22 30 32 35 35 40 37 51 36 38 44 55 64 77 78 75 77
13 12 11 10 12 13 17 25 30 31 31 32 35 41 44 41 37 38 36 33 34 36 45 65 77 79 79 70 63 67 66 68 63
14 14 11 10 11 17 23 30 37 42 44 45 43 45 53 56 49 38 33 40 34 39 40 48 54 58 54 52 40 36 42 48 45
23 20 16 14 17 25 34 42 45 46 51 56 59 55 54 57 62 62 48 39 41 43 48 45 42 44 50 46 41 42 35 39 46
27 21 16 18 24 33 40 44 48 51 55 55 56 54 51 50 54 59 61 58 46 41 39 51 52 47 39 46 52 48 42 41 47
19 17 17 18 23 31 40 48 48 43 46 49 48 49 49 48 48 46 51 58 60 56 54 49 49 56 66 61 55 46 49 49 52
18 17 15 21 28 34 34 34 37 37 37 37 38 45 57 62 51 47 44 46 48 52 47 44 47 51 56 62 80 71 60 60 63
Wind_Direction_850mb
196 235 247 242 240 231 230 227 226 229 236 237 243 247 252 249 245 244 246 248 251 257 252 258 258 253 246 238 236 222 213 221 225
323 359 320 257 239 232 230 232 230 229 236 240 243 248 251 253 248 245 247 250 250 254 252 257 266 263 244 237 237 231 221 220 225
3 28 19 341 263 238 228 235 236 234 238 243 248 249 250 254 254 248 249 253 251 252 251 255 261 258 253 247 238 232 231 225 224
38 38 31 22 294 243 239 240 240 239 238 244 249 253 252 255 254 251 251 255 253 250 248 249 253 263 266 251 245 241 238 234 227
55 51 36 31 343 240 225 229 236 238 244 243 248 258 260 263 261 254 255 256 256 250 248 245 247 255 256 257 253 251 248 243 236
85 78 75 55 281 201 200 211 220 225 251 245 252 261 264 259 255 254 255 260 263 264 262 258 254 254 257 256 252 251 252 245 240
158 141 148 178 205 218 220 223 223 258 303 297 270 260 251 254 258 255 258 264 265 266 269 276 275 267 264 263 259 254 249 241 242
190 180 175 202 223 233 240 248 255 277 286 276 273 255 256 255 255 263 252 254 261 257 255 260 272 277 276 268 261 255 252 249 242
191 196 228 221 251 267 269 273 280 291 283 286 285 271 264 260 264 267 263 260 257 252 248 266 288 289 269 271 266 255 246 244 241
140 99 81 61 28 346 320 311 308 310 307 278 261 263 267 267 267 259 264 257 257 262 266 265 283 271 269 255 252 258 245 242 237
121 98 84 74 14 16 11 15 8 351 329 320 304 334 332 316 309 290 273 262 266 267 257 265 263 251 243 241 241 247 247 244 241
140 117 43 20 7 360 10 9 5 354 347 348 339 343 342 332 333 305 278 268 275 267 258 264 256 262 256 241 255 253 248 248 245
142 167 324 325 330 337 339 336 330 326 337 331 329 328 331 307 308 296 290 285 271 274 266 230 203 224 201 213 252 241 244 256 247
181 218 276 300 314 320 321 317 321 325 330 327 331 330 333 329 303 288 291 284 276 257 250 209 210 231 221 228 241 242 256 252 248
199 226 234 261 291 311 325 329 331 332 327 322 315 314 320 322 318 303 284 285 284 283 262 245 251 261 264 259 250 248 247 243 237
219 220 233 244 268 295 313 320 320 317 317 315 309 301 301 308 311 314 297 277 285 284 281 274 273 272 264 256 246 233 220 224 224
216 221 222 244 278 299 306 310 314 317 319 315 310 306 302 295 295 296 293 287 283 279 274 275 279 281 269 259 252 244 233 230 232
200 204 230 269 294 305 313 315 313 313 312 313 311 312 312 305 293 289 291 289 284 280 273 265 266 267 264 258 251 246 252 256 239
208 234 257 279 296 304 309 310 315 321 320 320 321 322 323 317 310 301 292 293 291 287 282 278 272 268 260 256 248 248 249 247 242
239 246 270 288 299 310 317 322 325 325 328 325 324 328 331 330 319 303 305 302 302 295 287 292 284 281 280 270 262 256 246 242 237